Flag for Cambodia Weather past 2 weeks in Phnom Penh, Cambodia

86 °F

Passing clouds.

Feels Like: 95 °F
Forecast: 77 / 93 °F
Wind: 5 mph from Northeast

Location: Phnom-Penh / Pochentong

Current Time: Nov 29, 2015 at 7:34:28 PM

Latest Report: Nov 29, 2015 at 7:00 PM

Visibility: 6 mi

Pressure: N/A

Humidity: 70%

Dew point: 75 °F

Location of Phnom PenhLocation

Historic Weather in Phnom Penh — Graph


Phnom Penh temperature yesterday

Maximum temperature yesterday: 90 °F (at 1:30 PM)
Minimum temperature yesterday: 79 °F (at 6:00 AM)
Average temperature yesterday: 85 °F

Past Weeks' High & Low Weather Summary

High93 °F (Nov 16, 2:00 PM)94% (Nov 16, 6:00 AM)32.49 "Hg (Nov 16, 6:00 AM)
Low77 °F (Nov 27, 6:00 AM)49% (Nov 20, 2:00 PM)29.71 "Hg (Nov 16, 3:30 PM)
Average86 °F69%29.83 "Hg
* Reported Nov 14 6:00 PM — Nov 29 6:00 PM, Phnom Penh, Weather by CustomWeather, © 2015

Note: Actual official high and low records may vary slightly from our data, if they occured in-between our weather recording intervals... More about our weather records


Phnom Penh weather history for previous 24 hours

Time TempWeatherWind HumidityBarometerVisibility
6:00 PM
Sun, Nov 29
88 °FPassing clouds.7 mph62%29.83 "Hg6 mi
5:30 PM90 °FScattered clouds.8 mph59%29.83 "Hg6 mi
4:30 PM90 °FScattered clouds.12 mph59%29.83 "HgN/A
4:00 PM90 °FRain. Scattered clouds.9 mph59%29.83 "HgN/A
3:30 PM90 °FScattered clouds.13 mph59%29.83 "HgN/A
3:00 PM91 °FScattered clouds.9 mph59%29.83 "HgN/A
2:00 PM91 °FScattered clouds.9 mph56%29.83 "HgN/A
1:30 PM91 °FScattered clouds.10 mph56%29.86 "HgN/A
1:00 PM91 °FScattered clouds.10 mph56%29.86 "HgN/A
12:00 PM88 °FScattered clouds.10 mph66%29.89 "HgN/A
11:30 AM88 °FScattered clouds.10 mph66%29.92 "HgN/A
11:00 AM88 °FPassing clouds.9 mph66%29.92 "HgN/A
10:30 AM86 °FPassing clouds.9 mph70%29.92 "HgN/A
10:00 AM84 °FBroken clouds.9 mph70%29.95 "HgN/A
9:30 AM84 °FBroken clouds.8 mph74%29.95 "HgN/A
9:00 AM81 °FScattered clouds.8 mph84%29.95 "HgN/A
8:30 AM82 °FScattered clouds.7 mph74%29.95 "HgN/A
8:00 AM81 °FScattered clouds.6 mph79%29.95 "HgN/A
7:30 AM81 °FScattered clouds.9 mph79%29.92 "HgN/A
7:00 AM79 °FScattered clouds.5 mph84%29.92 "HgN/A
6:30 AM79 °FScattered clouds.3 mph84%29.89 "HgN/A
6:00 AM79 °FPassing clouds.5 mph84%29.89 "HgN/A
1:00 AM81 °FPassing clouds.2 mph84%29.92 "Hg6 mi
12:30 AM81 °FPassing clouds.1 mph84%29.92 "Hg6 mi
12:00 AM79 °FPassing clouds.2 mph89%29.95 "Hg6 mi
11:30 PM
Sat, Nov 28
81 °FPassing clouds.7 mph84%29.95 "Hg6 mi
11:00 PM82 °FPassing clouds.5 mph79%29.95 "Hg6 mi
10:30 PM82 °FPassing clouds.5 mph84%29.95 "Hg6 mi
10:00 PM82 °FPassing clouds.3 mph79%29.95 "Hg6 mi
9:30 PM82 °FPassing clouds.3 mph84%29.92 "Hg6 mi
9:00 PM82 °FPassing clouds.3 mph84%29.92 "Hg6 mi
8:30 PM81 °FPassing clouds.2 mph89%29.92 "Hg6 mi
8:00 PM81 °FLight rain. Partly cloudy.6 mph84%29.92 "Hg4 mi
7:30 PM86 °FPassing clouds.5 mph70%29.92 "Hg6 mi
7:00 PM86 °FPassing clouds.5 mph70%29.89 "Hg6 mi
Weather by CustomWeather, © 2015

See weather overviewHow to use our weather pages